Weather in Pelim

Russia / Sverdlovsk Oblast     59°38′55″N   63°05′54″E
temp.,
°C
wind,
m/s
gust,
m/s
humid.,
%
clouds,
%
prec.,
mm/h
press.,
hPa
HPBL,
m
25 july, sun
sun2523:00+17w386326 0.0 1005304
02:00+12nw3896100 0.0 1007285
05:00+12nnw497597 0.0 1009543
08:00+13nnw57495 0.0 1010723
11:00+17nw563446 0.0 10111546
14:00+19nw56315 0.0 10112128
17:00+19nw663642 0.0 10122063
20:00+15nw365319 0.0 1014883
26 july, mon
mon2623:00+13w2661100 0.0 1015197
02:00+12wnw376895 0.0 1015280
05:00+12w2770100 0.0 1015268
08:00+13w3763100 0.0 1015315
11:00+19wnw4637100 0.0 10142579
14:00+18w4744100 0.0 10131915
17:00+18w354720 0.0 10131354
20:00+16sw2657100 0.0 1012218
27 july, tue
tue2723:00+13sw387317 0.0 1011176
02:00+12wsw398438 0.0 1010280
05:00+13ssw3107893 0.0 1008341
08:00+12wsw41188100 0.6 1006640
11:00+15wnw577860 1.4 10071015
14:00+16nw575982 1.1 10071550
17:00+17nw4747100 1.3 10071701
20:00+13wnw375778 0.0 1008979
28 july, wed
wed2823:00+11wnw486595 0.0 1008695
02:00+6w279168 0.0 1008191
05:00+8wsw2681100 0.0 1007257
08:00+10wnw3472100 0.1 1006876
11:00+10nw457196 0.3 1007975
14:00+12nw355839 0.3 10071368
17:00+14wnw474286 0.4 10072125
20:00+12wnw375792 0.0 1008983
29 july, thu
thu2923:00+8w2885100 0.1 1008218
02:00+5w279295 0.0 1008154
05:00+4w259769 0.0 1008120
08:00+9wnw246896 0.0 1008452
11:00+14w3449100 0.0 10071734
14:00+13w245195 0.1 10071436
17:00+15w2547100 0.1 10061723
20:00+12w1162100 0.0 100610